SCP
0 0 0 0 0 0 0 0 0 0 0 0 0 0 0 0 0 0 0 0 0 0 0 0 0 0 0 0 0 0 -0 -0 -0 -0 0 0 0 0
0 0 0 0 0 0 0 0 0 0 0 0 0 0 0 0 0 0 0 0 0 0 0 0 0 0 0 0 0 0 -0 -0 -0 -0 0 0 0 0
0 0 0 0 0 0 0 0 0 0 0 0 0 0 0 0 0 0 0 0 0 0 0 0 0 0 0 0 0 0 0 0 0 0 0 0 0 0
0 0 0 0 0 0 0 0 0 0 0 0 0 0 0 0 0 0 0 0 0 0 0 0 0 0 0 0 0 0 0 0 0 0 0 0 0 0
0 0 0 0 0 0 0 0 0 0 0 0 0 0 0 0 0 0 0 0 0 0 0 0 0 0 0 0 0 0 0 0 0 0 0 0 0 0
0 0 0 0 0 0 0 0 0 0 0 0 0 0 0 0 0 0 0 0 0 0 0 0 0 0 0 0 0 0 0 0 0 0 0 0 0 0
0 0 0 0 0 0 0 0 0 0 0 0 0 0 0 0 0 0 0 0 0 0 0 0 0 0 0 0 0 0 0 0 0 0 0 0 0 0
0 0 0 0 0 0 0 0 0 0 0 0 0 0 0 0 0 0 0 0 0 0 0 0 0 0 0 0 0 0 0 0 0 0 0 0 0 0
0 0 0 0 0 0 0 0 0 0 0 0 0 0 0 0 0 0 0 0 0 0 0 0 0 0 0 0 0 0 0 0 0 0 0 0 0 0
0 0 0 0 0 0 0 0 0 0 0 0 0 0 0 0 0 0 0 0 0 0 0 0 0 0 0 0 0 0 0 0 0 0 0 0 0 0
0 0 0 0 0 0 0 0 0 0 0 0 0 0 0 0 0 0 0 0 0 0 0 0 0 0 0 0 0 0 0 0 0 0 0 0 0 0
0 0 0 0 0 0 0 0 0 0 0 0 0 0 0 0 0 0 0 0 0 0 0 0 0 0 0 0 0 0 0 0 0 0 0 0 0 0
0 0 0 0 0 0 0 0 0 0 0 0 0 0 0 0 0 0 0 0 0 0 0 0 0 0 0 0 0 0 0 0 0 0 0 0 0 0
0 0 0 0 0 0 0 0 0 0 0 0 0 0 0 0 0 0 0 0 0 0 0 0 0 0 0 0 0 0 0 0 0 0 0 0 0 0
0 0 0 0 0 0 0 0 0 0 0 0 0 0 0 0 0 0 0 0 0 0 0 0 0 0 0 0 0 0 0 0 0 0 0 0 0 0
0 0 0 0 0 0 0 0 0 0 0 0 0 0 0 0 0 0 0 0 0 0 0 0 0 0 0 0 0 0 0 0 0 0 0 0 0 0
0 0 0 0 0 0 0 0 0 0 0 0 0 0 0 0 0 0 0 0 0 0 0 0 0 0 0 0 0 0 0 0 0 0 0 0 0 0
0 0 0 0 0 0 0 0 0 0 0 0 0 0 0 0 0 0 0 0 0 0 0 0 0 0 0 0 0 0 0 0 0 0 0 0 0 0
0 0 0 0 0 0 0 0 0 0 0 0 0 0 0 0 0 0 0 0 0 0 0 0 0 0 0 0 0 0 0 0 0 0 0 0 0 0
0 0 0 0 0 0 0 0 0 0 0 0 0 0 0 0 0 0 0 0 0 0 0 0 0 0 0 0 0 0 0 0 0 0 0 0 0 0
0 0 0 0 0 0 0 0 0 0 0 0 0 0 0 0 0 0 0 0 0 0 0 0 0 0 0 0 0 0 0 0 0 0 0 0 0 0
0 0 0 0 0 0 0 0 0 0 0 0 0 0 0 0 0 0 0 0 0 0 0 0 0 0 0 0 0 0 0 0 0 0 0 0 0 0
0 0 0 0 0 0 0 0 0 0 0 0 0 0 0 0 0 0 0 0 0 0 0 0 0 0 0 0 0 0 0 0 0 0 0 0 0 0
Wind_Speed
3 3 2 2 1 1 0 0 0 1 2 2 2 3 3 3 8 6 5 10 12 11 10 9 9 8 8 8 8 8 8 8 8 9 9 9 10 11
3 3 2 1 1 0 1 1 1 0 1 1 2 3 3 3 7 4 4 9 13 13 13 12 11 11 10 10 10 9 9 9 10 10 10 10 10 11
3 3 2 1 1 1 1 1 1 0 1 1 1 2 3 2 3 3 4 5 7 15 15 15 14 13 13 12 12 12 11 11 11 11 11 11 11 11
4 4 4 3 2 1 1 1 1 0 0 1 1 1 3 4 5 5 5 6 5 10 15 16 16 15 14 14 14 13 13 13 13 12 12 12 12 12
5 5 4 4 3 2 2 2 1 2 2 2 3 2 2 4 4 5 6 5 7 7 12 15 16 16 16 16 16 16 15 14 14 13 13 13 12 13
5 5 5 5 5 4 3 3 2 2 2 2 3 3 3 3 3 3 4 4 5 6 5 6 12 17 18 17 17 17 16 16 15 15 14 14 13 13
5 5 5 5 5 4 3 2 3 3 3 3 3 3 3 2 2 2 3 3 3 3 3 4 4 5 7 12 16 17 17 16 16 15 15 15 15 14
5 5 5 6 6 6 5 3 2 3 3 2 3 3 3 2 2 2 3 3 4 2 2 4 4 4 5 5 10 14 15 16 16 16 16 16 16 16
6 5 7 8 9 7 8 9 7 8 7 4 5 5 4 3 3 4 4 4 5 4 4 6 5 6 6 7 9 10 13 15 16 16 17 17 16 16
6 6 6 5 5 6 7 7 7 7 9 8 7 7 6 3 3 4 5 6 6 5 5 6 6 6 7 5 8 10 12 14 15 16 17 17 17 17
6 6 6 6 6 6 5 5 5 5 7 8 8 7 6 6 4 2 4 4 6 5 4 4 5 5 5 5 7 10 11 12 13 15 16 16 17 15
5 5 7 6 5 6 5 4 5 4 4 4 4 6 7 8 9 6 5 5 5 5 4 3 4 4 5 4 4 5 6 9 12 14 15 16 15 9
5 5 4 8 9 8 7 4 5 3 3 4 4 4 5 5 6 6 6 6 6 6 5 3 4 5 5 6 5 5 5 5 6 7 11 13 14 11
3 2 2 6 9 9 7 5 5 3 3 4 4 4 4 3 4 4 5 6 6 7 7 5 5 6 7 9 8 6 5 5 5 5 5 8 11 14
1 1 2 3 5 5 6 6 5 3 4 4 4 4 3 3 3 3 4 5 6 8 8 8 7 7 6 8 8 7 7 6 6 6 5 5 5 5
3 2 3 3 3 2 3 4 4 4 3 4 4 4 3 3 3 3 4 4 4 5 6 7 7 7 6 7 8 8 7 6 6 6 6 6 5 5
4 2 2 2 2 2 2 3 3 3 3 4 4 4 4 4 4 3 3 4 5 6 5 4 5 5 7 7 8 8 8 7 6 6 6 7 7 6
4 2 3 3 3 3 3 2 2 3 3 3 3 4 4 4 4 4 4 4 5 5 5 5 5 5 5 6 8 8 7 7 6 6 6 8 9 7
3 2 2 2 2 1 2 2 2 2 2 3 4 4 4 4 4 4 4 4 5 5 5 5 5 5 8 9 7 6 7 7 7 7 7 7 9 8
2 2 1 1 1 1 1 1 2 2 2 3 3 3 3 4 4 4 4 5 5 6 6 6 5 5 6 9 9 8 8 8 7 8 8 8 8 10
1 1 1 1 1 1 1 2 2 3 3 3 3 4 3 3 4 4 4 6 6 6 6 6 6 7 6 6 7 8 7 9 10 8 8 8 10 9
1 1 1 1 1 2 2 2 3 3 3 3 3 3 3 3 4 5 5 6 6 6 7 6 6 5 5 6 9 10 10 9 10 13 14 13 9 9
2 2 2 2 2 2 2 3 4 3 3 3 4 3 4 4 5 5 6 6 5 6 7 7 6 6 6 7 8 9 12 11 9 9 9 11 14 17
Wind_Direction
213 197 235 259 244 276 323 281 228 230 215 184 168 169 159 147 164 189 183 196 204 211 216 222 230 236 243 250 255 260 263 265 265 266 266 268 270 272
205 191 205 252 251 242 256 281 316 309 275 177 180 151 147 164 171 203 212 202 210 216 219 223 229 234 239 243 247 251 254 256 258 260 261 263 265 267
202 176 183 268 290 286 231 218 257 303 286 281 156 135 142 163 173 228 233 212 217 221 221 224 228 232 236 240 244 247 250 252 254 256 259 262 263 265
200 184 186 206 198 280 302 258 221 143 234 289 273 186 194 195 201 220 242 247 242 225 218 222 227 231 235 239 243 246 248 250 252 254 256 258 260 262
190 189 193 202 198 210 237 266 258 237 196 237 259 239 217 212 208 226 244 252 261 252 225 223 228 232 235 238 240 243 246 248 250 252 253 256 257 259
193 193 199 201 197 208 225 231 256 273 255 245 258 253 238 222 201 224 254 249 254 267 263 238 228 231 236 239 242 244 245 246 248 250 252 253 254 255
202 200 207 203 199 197 224 220 234 234 245 242 247 252 250 244 235 243 264 277 268 264 268 268 249 238 237 242 245 246 244 243 243 245 247 249 251 252
207 208 210 202 198 199 215 228 235 252 269 281 283 279 284 298 308 296 294 299 291 295 313 295 292 279 262 251 243 238 238 240 242 243 245 246 247 249
208 211 225 224 200 204 213 225 234 236 229 241 264 274 285 295 313 305 296 290 281 287 298 285 280 277 272 281 273 252 240 239 241 243 244 245 247 249
213 212 222 247 228 206 212 217 220 226 224 225 237 249 258 270 270 274 278 280 271 265 256 269 272 270 280 279 275 267 257 251 248 247 245 246 248 249
234 224 216 221 225 217 222 233 238 245 239 229 219 228 234 243 243 266 272 275 279 276 266 267 278 280 278 278 279 279 271 262 257 255 253 252 252 254
229 228 221 217 201 196 212 226 239 251 269 266 241 244 243 242 233 226 241 255 269 278 274 279 288 299 292 279 284 291 279 272 267 263 260 259 259 258
223 214 206 198 198 200 206 216 229 249 267 266 261 249 240 238 232 224 224 232 249 260 279 295 294 294 287 291 290 285 281 278 276 272 266 262 259 247
231 221 187 186 192 203 208 218 224 236 253 258 259 259 259 260 257 247 236 232 238 252 268 275 275 276 283 288 290 286 282 282 282 276 268 268 264 254
242 80 106 170 188 202 214 216 217 224 235 247 254 260 263 270 273 269 267 255 254 256 261 254 255 264 268 278 285 287 291 286 280 281 279 273 268 266
227 177 154 172 202 208 198 214 222 233 239 250 261 269 273 267 262 263 270 270 270 270 262 260 258 260 268 275 280 284 283 283 286 285 285 282 276 268
188 198 203 196 203 216 219 217 221 222 236 250 262 272 276 278 276 274 272 280 280 283 286 284 275 265 263 273 280 280 282 283 283 286 290 289 282 275
163 203 219 224 222 223 225 226 223 231 241 250 257 266 274 280 283 284 282 280 281 285 288 291 296 297 290 272 257 273 279 283 285 284 283 286 286 279
167 214 227 236 237 231 236 243 247 236 235 250 260 264 270 279 286 289 291 292 292 292 294 298 300 301 300 298 292 276 286 289 290 288 284 283 286 285
216 227 240 252 264 276 278 279 279 274 261 259 265 272 277 283 290 293 294 297 300 301 299 297 295 294 290 292 295 293 277 278 284 285 286 285 281 281
204 247 311 335 340 338 329 317 311 303 307 306 296 291 289 293 296 299 298 300 296 291 292 293 292 294 288 291 293 292 288 277 273 276 284 288 289 289
43 21 357 345 350 351 342 330 315 309 313 310 309 315 315 312 305 302 301 299 294 294 296 295 298 301 296 291 291 294 297 298 289 277 268 263 271 280
33 19 3 5 18 12 359 338 328 324 327 330 330 328 321 313 303 296 293 292 297 303 306 304 303 299 295 293 293 295 297 301 301 300 292 284 272 264